Location: Rooftop Observatory
(39.0308°N, 87.1711°W)
Time: 10:57:30
(UTC-06:00)

Daily predictions for brighter satellites

Satellite Brightness Start Highest point End
(mag) Time Altitude Azimuth Time Altitude Azimuth Time Altitude Azimuth
Cosmos 1328 Rocket 3.6 17:15:26 10° N 17:19:50 59° E 17:24:13 10° SSE
Cosmos 1300 3.8 17:16:51 10° NNE 17:19:59 23° ENE 17:23:07 10° SE
Tsikada Rocket 4.2 17:13:57 10° S 17:20:19 84° W 17:26:47 10° N
MSX 3.8 17:15:35 10° SSE 17:21:13 66° ENE 17:26:54 10° N
Hubble Space Telescope 3.5 17:25:18 10° SW 17:27:21 13° SSW 17:29:23 10° SSE
Cosmos 1515 Rocket 3.7 17:23:35 10° N 17:27:59 53° E 17:32:18 10° SSE
Aureole 2 Rocket 4.1 17:27:22 10° SE 17:30:01 19° E 17:32:50 10° NE
COSMOS 2441 4.3 17:27:34 10° SSE 17:32:24 69° ENE 17:37:14 10° N
SKYMED 2 4.0 17:28:31 10° NNE 17:32:40 43° E 17:36:48 10° S
Cosmos 1151 Rocket 3.4 17:29:11 10° N 17:33:12 39° ENE 17:37:14 10° SSE
BREEZE M DEB (TANK) 3.1 17:33:16 10° NW 17:35:35 19° NNE 17:37:00 12° ENE
Abrixas 3.4 17:34:50 10° SSW 17:37:30 32° SE 17:39:46 13° ENE
Lacrosse 5 rocket 2.6 17:34:39 10° NNW 17:37:34 21° NE 17:40:19 11° E
Cosmos 1500 Rocket 3.5 17:36:46 10° S 17:41:05 77° E 17:45:26 10° N
Cosmos 1844 Rocket 2.9 17:37:00 10° NNW 17:42:41 77° WSW 17:48:18 10° SSE
CZ-4 R/B 3.0 17:39:59 10° SSW 17:43:36 37° W 17:47:14 10° NNW
Meteor 1-28 Rocket 3.7 17:41:55 10° NNE 17:45:24 37° E 17:48:52 10° SSE
Cosmos 1634 Rocket 3.9 17:40:07 10° N 17:46:20 75° E 17:52:27 10° SSE
Cosmos 332 Rocket 4.4 17:45:56 10° SSW 17:50:40 58° WNW 17:55:28 10° N
Cosmos 1328 3.8 17:50:22 10° S 17:54:18 88° W 17:58:16 10° N
Cosmos 372 Rocket 4.1 17:49:52 10° N 17:54:47 47° ENE 17:59:41 10° SE
Sich 1 4.4 17:52:33 10° SE 17:55:44 20° E 17:57:08 17° ENE
NOSS 0 Rocket 4.0 17:51:11 10° SSW 17:57:25 88° ESE 18:03:40 10° NNE
Cosmos 1980 3.7 17:53:26 10° SSW 17:59:07 85° ESE 18:04:49 10° NNE
Cosmos 1633 Rocket 4.4 17:57:08 10° SE 18:00:14 19° E 18:00:36 19° E
Cosmos 2084 4.0 17:59:58 10° SW 18:03:46 47° NW 18:07:19 11° NNE
Cosmos 540 Rocket 3.4 17:59:07 10° SSW 18:04:17 87° ESE 18:09:29 10° NNE
SJ-6B 3.3 18:04:15 10° SE 18:08:00 38° ENE 18:11:51 10° N
OTV 4 1.4 18:05:10 10° W 18:08:00 43° SSW 18:09:45 19° SE
ALOS 3.2 18:05:05 10° ESE 18:08:50 25° ENE 18:12:36 10° NNE
Cosmos 44 3.5 18:03:34 10° SSW 18:08:52 81° WNW 18:13:38 12° NNE
USA 215 3.3 18:02:59 10° ESE 18:09:23 60° NE 18:15:48 10° NW
Meteor 2-10 3.9 18:04:40 10° N 18:09:44 64° E 18:14:55 10° SSE
Cosmos 2333 Rocket 2.7 18:08:18 10° SW 18:13:52 61° WNW 18:19:28 10° NNE
METEOR-M 4.1 18:10:33 10° SSE 18:15:47 59° ENE 18:21:04 10° N
Cosmos 783 Rocket 4.5 18:10:30 10° SSW 18:15:48 84° ESE 18:21:10 10° NNE
Resurs 01 Rocket 2.6 18:17:34 26° ENE 18:17:34 26° ENE 18:20:50 10° NNE
Cosmos 1461 3.4 18:13:14 10° S 18:17:09 37° ESE 18:18:18 31° E
Cosmos 1703 3.3 18:15:33 10° S 18:19:20 52° E 18:21:52 19° NNE
COSMO-SKYMED 1 3.4 18:16:28 10° N 18:20:42 52° WNW 18:24:54 10° SSW
Cosmos 1707 Rocket 3.8 18:19:09 10° N 18:23:18 44° E 18:27:26 10° SSE
Cosmos 2219 Rocket 3.4 18:18:03 10° SW 18:23:19 40° WNW 18:28:36 10° N
Cosmos 2058 3.1 18:19:29 10° SSW 18:23:34 73° W 18:27:41 10° N
SL-19 R/B 4.4 18:23:22 10° SE 18:29:07 52° ENE 18:34:36 10° N
Cosmos 1125 Rocket 4.2 18:24:27 10° NNW 18:29:32 56° WSW 18:34:35 10° S
FREGAT/IRIS 2.8 18:26:36 10° SSE 18:32:18 13° N 18:32:39 10° N
Cosmos 2278 Rocket 2.5 18:26:10 10° NNW 18:31:50 70° WSW 18:37:27 10° SSE
Cosmos 1666 Rocket 3.6 18:28:16 10° S 18:32:29 53° E 18:34:05 33° NE
Cosmos 1626 2.1 18:29:47 10° S 18:33:27 59° E 18:34:02 51° NE
Meteor 1-27 4.5 18:29:18 10° NNW 18:35:06 74° W 18:40:55 10° S
Spot 2 Rocket 3.7 18:32:28 10° SE 18:37:15 45° ENE 18:42:02 10° N
Cosmos 1340 Rocket 3.2 18:33:21 10° SSW 18:37:16 63° W 18:40:58 11° N
Cosmos 2279 Rocket 4.2 18:31:12 10° N 18:37:24 74° W 18:43:35 10° S
NOAA 12 4.2 18:34:02 10° S 18:39:16 77° WSW 18:44:33 10° NNW
Transit 2A Rocket 4.5 18:36:29 10° NNW 18:40:49 82° WSW 18:44:41 13° SSE
Cosmos 1538 Rocket 3.9 18:41:16 10° S 18:46:30 71° ESE 18:48:47 35° NNE
Cosmos 1356 Rocket 3.1 18:42:53 10° S 18:46:53 83° E 18:47:32 61° NNE
BREEZE-M DEB (TANK) 3.7 18:45:14 10° WNW 18:46:31 18° NW 18:46:31 18° NW
USA 229 DEB 4.0 18:41:52 10° S 18:48:14 43° ESE 18:49:29 39° E
USA 229 4.0 18:42:00 10° S 18:48:21 43° ESE 18:49:32 39° E
Cosmos 2237 Rocket 3.6 18:50:26 10° SW 18:55:34 36° WNW 19:00:46 10° N
Nadezhda 4 Rocket 3.9 18:50:04 10° S 18:56:19 87° E 19:02:39 10° N
SL-16 R/B 2.3 18:55:07 10° SSW 19:00:45 76° WNW 19:03:37 30° NNE
Aureole 1 Rocket 3.7 18:55:52 10° S 19:00:46 60° ESE 19:01:09 59° E
Iridium 4 Rocket 3.9 19:00:03 10° S 19:03:08 40° SSE 19:03:08 40° SSE
Cosmos 1900 4.2 18:59:57 10° NNW 19:04:51 79° NE 19:04:51 79° NE
Cosmos 2297 3.9 19:06:25 10° NNW 19:12:06 70° WSW 19:17:47 10° SSE
Cosmos 1092 Rocket 3.9 19:08:19 10° S 19:14:39 87° E 19:20:03 15° N
Lacrosse 5 rocket 2.4 19:13:12 10° NW 19:16:06 41° W 19:16:06 41° W
ALOS 3.9 19:41:57 10° SSW 19:46:06 31° W 19:50:16 10° NNW
BREEZE-M DEB (TANK) 4.4 19:46:15 10° SSW 20:15:13 - NE 19:49:15 47° S
USA 215 4.4 19:49:19 24° S 19:52:30 38° SW 19:58:32 10° WNW
Resurs 01 Rocket 3.9 19:55:07 21° WNW 19:55:07 21° WNW 19:57:15 10° NW
